TimeEDT,TemperatureF,Dew PointF,Humidity,Sea Level PressureIn,VisibilityMPH,Wind Direction,Wind SpeedMPH,Gust SpeedMPH,PrecipitationIn,Events,Conditions,WindDirDegrees,DateUTC
12:51 AM,48.0,39.0,71,30.29,10.0,Calm,Calm,-,N/A,,Clear,0,2013-05-05 04:51:00
1:51 AM,46.9,39.0,74,30.28,10.0,Calm,Calm,-,N/A,,Clear,0,2013-05-05 05:51:00
2:51 AM,46.0,39.0,76,30.27,10.0,NE,3.5,-,N/A,,Clear,40,2013-05-05 06:51:00
3:51 AM,45.0,39.0,80,30.27,10.0,Calm,Calm,-,N/A,,Clear,0,2013-05-05 07:51:00
4:21 AM,44.6,39.2,81,30.27,10.0,Calm,Calm,-,N/A,,Mostly Cloudy,0,2013-05-05 08:21:00
4:51 AM,44.1,39.0,82,30.27,10.0,NW,4.6,-,N/A,,Overcast,320,2013-05-05 08:51:00
5:51 AM,45.0,39.9,82,30.27,10.0,North,4.6,-,N/A,,Overcast,10,2013-05-05 09:51:00
6:51 AM,46.9,39.9,77,30.28,10.0,NE,4.6,-,N/A,,Overcast,40,2013-05-05 10:51:00
7:26 AM,48.2,39.2,71,30.28,10.0,ENE,6.9,-,N/A,,Scattered Clouds,70,2013-05-05 11:26:00
7:35 AM,48.2,39.2,71,30.28,10.0,ENE,6.9,-,N/A,,Mostly Cloudy,60,2013-05-05 11:35:00
7:51 AM,48.9,39.0,69,30.28,10.0,NE,8.1,-,N/A,,Mostly Cloudy,50,2013-05-05 11:51:00
7:58 AM,48.2,37.4,66,30.28,10.0,East,9.2,-,N/A,,Scattered Clouds,90,2013-05-05 11:58:00
8:51 AM,51.1,37.0,59,30.29,10.0,East,9.2,-,N/A,,Partly Cloudy,80,2013-05-05 12:51:00
9:51 AM,52.0,37.0,57,30.29,10.0,SE,6.9,-,N/A,,Clear,130,2013-05-05 13:51:00
10:51 AM,55.0,36.0,49,30.28,10.0,East,8.1,-,N/A,,Clear,100,2013-05-05 14:51:00
11:51 AM,57.0,36.0,45,30.28,10.0,ESE,9.2,-,N/A,,Clear,110,2013-05-05 15:51:00
12:51 PM,57.9,37.0,46,30.27,10.0,ESE,8.1,-,N/A,,Clear,110,2013-05-05 16:51:00
1:51 PM,60.1,37.9,44,30.25,10.0,ENE,9.2,-,N/A,,Clear,60,2013-05-05 17:51:00
2:51 PM,64.0,36.0,35,30.24,10.0,ESE,11.5,19.6,N/A,,Clear,120,2013-05-05 18:51:00
3:51 PM,61.0,43.0,52,30.23,10.0,SSW,13.8,-,N/A,,Clear,200,2013-05-05 19:51:00
4:06 PM,60.8,44.6,55,30.23,10.0,SSW,12.7,21.9,N/A,,Clear,200,2013-05-05 20:06:00
4:51 PM,59.0,44.1,58,30.22,10.0,SSW,12.7,19.6,N/A,,Clear,200,2013-05-05 20:51:00
5:51 PM,57.0,43.0,59,30.22,10.0,South,9.2,-,N/A,,Clear,170,2013-05-05 21:51:00
6:51 PM,55.9,43.0,62,30.22,10.0,Variable,4.6,-,N/A,,Clear,0,2013-05-05 22:51:00
7:51 PM,53.1,42.1,66,30.23,10.0,South,5.8,-,N/A,,Clear,190,2013-05-05 23:51:00
8:51 PM,51.1,43.0,74,30.25,10.0,SSW,6.9,-,N/A,,Clear,210,2013-05-06 00:51:00
9:51 PM,51.1,42.1,71,30.25,10.0,ESE,5.8,-,N/A,,Clear,110,2013-05-06 01:51:00
10:51 PM,51.1,39.9,66,30.25,10.0,NE,3.5,-,N/A,,Clear,40,2013-05-06 02:51:00
11:51 PM,48.9,39.0,69,30.24,10.0,Calm,Calm,-,N/A,,Clear,0,2013-05-06 03:51:00